Fosston, MN

9:26 PM CDT on April 29, 2017 (GMT -0500)
Fosston Municipal

Weather History for KFSE - March, 2014

Change the Weather History Date:

Saturday, March 1, 2014

  Actual Average Record
Temperature  
Mean Temperature -19 °F -  
Max Temperature -9 °F 27 °F 43 °F (1992)
Min Temperature -29 °F 7 °F -30 °F (1962)
Degree Days  
Heating Degree Days 84    
Moisture  
Dew Point -30 °F    
Average Humidity 61    
Maximum Humidity 83    
Minimum Humidity 37    
Precipitation  
Precipitation 0.00 in - - ()
Sea Level Pressure  
Sea Level Pressure 30.44 in    
Wind  
Wind Speed 7 mph (WNW)    
Max Wind Speed 13 mph    
Max Gust Speed -    
Visibility 10 miles    
Events      
Averages and records for this station are not official NWS values.
T = Trace of Precipitation, MM = Missing Value Source: NWS Daily Summary

Daily Weather History Graph

Daily Weather History Graph

Search for Another Location

Airport or City:

Trip Planner

Search our weather history database for the weather conditions in past years. The results will help you decide how hot, cold, wet, or windy it might be!

Date:

Astronomy

Mar. 01, 2014 Rise Set
Actual Time 7:03 AM CST 6:08 PM CST
Civil Twilight 6:32 AM CST 6:38 PM CST
Nautical Twilight 5:57 AM CST 7:14 PM CST
Astronomical Twilight 5:21 AM CST 7:50 PM CST
Moon 6:54 AM CST (3/1) 7:02 PM CST (3/1)
Length of Visible Light 12h 06m
Length of Day
11h 04m
New Moon, 0% of the Moon is Illuminated
Mar 1
New Moon
Mar 8
First Quarter
Mar 16
Full
Mar 23
Last Quarter
Mar 30
New

Hourly Weather History & Observations

Time (CST) Temp. Windchill Dew Point Humidity Pressure Visibility Wind Dir Wind Speed Gust Speed Precip Events Conditions
12:15 AM -18.4 °F -35.1 °F -23.8 °F 76% 30.26 in 10.0 mi WNW 6.9 mph - N/A   Clear
12:35 AM -18.4 °F -33.4 °F -23.8 °F 76% 30.27 in 10.0 mi WNW 5.8 mph - N/A   Clear
12:55 AM -18.4 °F -35.1 °F -25.6 °F 70% 30.28 in 10.0 mi WNW 6.9 mph - N/A   Clear
1:15 AM -20.2 °F -35.5 °F -25.6 °F 76% 30.29 in 10.0 mi WNW 5.8 mph - N/A   Clear
1:35 AM -20.2 °F -33.5 °F -25.6 °F 76% 30.30 in 10.0 mi West 4.6 mph - N/A   Clear
1:55 AM -20.2 °F -35.5 °F -27.4 °F 69% 30.30 in 10.0 mi WSW 5.8 mph - N/A   Clear
2:15 AM -23.8 °F -39.8 °F -27.4 °F 83% 30.31 in 10.0 mi West 5.8 mph - N/A   Clear
2:36 AM -22.0 °F -41.0 °F -27.4 °F 76% 30.32 in 10.0 mi West 8.1 mph - N/A   Clear
2:55 AM -23.8 °F -41.6 °F -27.4 °F 83% 30.32 in 10.0 mi West 6.9 mph - N/A   Clear
3:15 AM -23.8 °F -39.8 °F -29.2 °F 76% 30.32 in 10.0 mi West 5.8 mph - N/A   Clear
3:36 AM -23.8 °F -41.6 °F -27.4 °F 83% 30.33 in 10.0 mi WNW 6.9 mph - N/A   Clear
3:55 AM -23.8 °F -39.8 °F -27.4 °F 83% 30.34 in 10.0 mi West 5.8 mph - N/A   Clear
4:15 AM -23.8 °F -39.8 °F -29.2 °F 76% 30.35 in 10.0 mi West 5.8 mph - N/A   Clear
4:35 AM -23.8 °F -44.5 °F -29.2 °F 76% 30.34 in 10.0 mi NW 9.2 mph - N/A   Clear
4:55 AM -23.8 °F -43.2 °F -29.2 °F 76% 30.36 in 10.0 mi WNW 8.1 mph - N/A   Clear
5:15 AM -25.6 °F -43.8 °F -31.0 °F 76% 30.38 in 10.0 mi West 6.9 mph - N/A   Clear
5:35 AM -23.8 °F -44.5 °F -29.2 °F 76% 30.39 in 10.0 mi WNW 9.2 mph - N/A   Clear
5:55 AM -25.6 °F -46.8 °F -31.0 °F 76% 30.39 in 10.0 mi WNW 9.2 mph - N/A   Clear
6:15 AM -25.6 °F -48.0 °F -32.8 °F 69% 30.39 in 10.0 mi NW 10.4 mph - N/A   Clear
6:35 AM -25.6 °F -45.4 °F -32.8 °F 69% 30.38 in 10.0 mi NW 8.1 mph - N/A   Clear
6:55 AM -25.6 °F -46.8 °F -32.8 °F 69% 30.39 in 10.0 mi NW 9.2 mph - N/A   Clear
7:15 AM -25.6 °F -48.0 °F -32.8 °F 69% 30.40 in 10.0 mi NW 10.4 mph - N/A   Clear
7:35 AM -25.6 °F -48.0 °F -32.8 °F 69% 30.41 in 10.0 mi NW 10.4 mph - N/A   Clear
7:55 AM -25.6 °F -46.8 °F -32.8 °F 69% 30.42 in 10.0 mi NW 9.2 mph - N/A   Clear
8:15 AM -25.6 °F -46.8 °F -32.8 °F 69% 30.44 in 10.0 mi NW 9.2 mph - N/A   Clear
8:35 AM -23.8 °F -43.2 °F -31.0 °F 69% 30.44 in 10.0 mi NW 8.1 mph - N/A   Clear
8:55 AM -20.2 °F -37.3 °F -29.2 °F 63% 30.44 in 10.0 mi NW 6.9 mph - N/A   Clear
9:15 AM -18.4 °F -35.1 °F -29.2 °F 58% 30.45 in 10.0 mi NW 6.9 mph - N/A   Clear
9:35 AM -16.6 °F -29.3 °F -29.2 °F 53% 30.46 in 10.0 mi NW 4.6 mph - N/A   Clear
9:55 AM -14.8 °F -29.1 °F -27.4 °F 53% 30.47 in 10.0 mi NNW 5.8 mph - N/A   Clear
10:15 AM -14.8 °F -29.1 °F -27.4 °F 53% 30.49 in 10.0 mi WNW 5.8 mph - N/A   Scattered Clouds
10:35 AM -11.2 °F -24.8 °F -27.4 °F 45% 30.49 in 10.0 mi NW 5.8 mph - N/A   Clear
10:55 AM -11.2 °F -27.8 °F -27.4 °F 45% 30.49 in 10.0 mi NNW 8.1 mph - N/A   Scattered Clouds
11:15 AM -11.2 °F -29.0 °F -27.4 °F 45% 30.49 in 10.0 mi NNW 9.2 mph - N/A   Mostly Cloudy
11:35 AM -11.2 °F -30.1 °F -27.4 °F 45% 30.49 in 10.0 mi NNW 10.4 mph - N/A   Scattered Clouds
11:55 AM -11.2 °F -29.0 °F -27.4 °F 45% 30.50 in 10.0 mi WNW 9.2 mph - N/A   Clear
12:15 PM -11.2 °F -30.1 °F -27.4 °F 45% 30.51 in 10.0 mi WNW 10.4 mph - N/A   Clear
12:35 PM -11.2 °F -30.1 °F -27.4 °F 45% 30.50 in 10.0 mi NW 10.4 mph - N/A   Clear
12:55 PM -9.4 °F -25.6 °F -27.4 °F 41% 30.51 in 10.0 mi WNW 8.1 mph - N/A   Clear
1:15 PM -9.4 °F -26.8 °F -27.4 °F 41% 30.51 in 10.0 mi WNW 9.2 mph - N/A   Clear
1:35 PM -9.4 °F -27.9 °F -27.4 °F 41% 30.51 in 10.0 mi WNW 10.4 mph - N/A   Clear
1:55 PM -11.2 °F -27.8 °F -27.4 °F 45% 30.50 in 10.0 mi WNW 8.1 mph - N/A   Clear
2:15 PM -9.4 °F -28.9 °F -27.4 °F 41% 30.50 in 10.0 mi WNW 11.5 mph - N/A   Clear
2:35 PM -9.4 °F -27.9 °F -29.2 °F 37% 30.50 in 10.0 mi WNW 10.4 mph - N/A   Clear
2:55 PM -9.4 °F -25.6 °F -29.2 °F 37% 30.49 in 10.0 mi WNW 8.1 mph - N/A   Clear
3:15 PM -9.4 °F -28.9 °F -29.2 °F 37% 30.49 in 10.0 mi NW 11.5 mph - N/A   Clear
3:35 PM -9.4 °F -26.8 °F -29.2 °F 37% 30.50 in 10.0 mi NW 9.2 mph - N/A   Clear
3:55 PM -11.2 °F -32.1 °F -29.2 °F 41% 30.49 in 10.0 mi NW 12.7 mph - N/A   Clear
4:15 PM -13.0 °F -34.3 °F -29.2 °F 44% 30.49 in 10.0 mi NW 12.7 mph - N/A   Clear
4:35 PM -13.0 °F -32.4 °F -29.2 °F 44% 30.49 in 10.0 mi NW 10.4 mph - N/A   Clear
4:55 PM -14.8 °F -32.2 °F -29.2 °F 48% 30.48 in 10.0 mi NW 8.1 mph - N/A   Clear
5:15 PM -14.8 °F -29.1 °F -29.2 °F 48% 30.48 in 10.0 mi NW 5.8 mph - N/A   Clear
5:35 PM -16.6 °F -35.7 °F -29.2 °F 53% 30.49 in 10.0 mi WNW 9.2 mph - N/A   Clear
5:55 PM -18.4 °F -35.1 °F -31.0 °F 53% 30.49 in 10.0 mi WNW 6.9 mph - N/A   Clear
6:15 PM -20.2 °F -33.5 °F -32.8 °F 52% 30.49 in 10.0 mi West 4.6 mph - N/A   Clear
6:35 PM -22.0 °F -35.6 °F -31.0 °F 63% 30.50 in 10.0 mi West 4.6 mph - N/A   Clear
6:55 PM -23.8 °F -37.7 °F -32.8 °F 63% 30.50 in 10.0 mi WSW 4.6 mph - N/A   Clear
7:15 PM -23.8 °F -39.8 °F -34.6 °F 57% 30.51 in 10.0 mi SW 5.8 mph - N/A   Clear
7:35 PM -23.8 °F -41.6 °F -34.6 °F 57% 30.51 in 10.0 mi SSW 6.9 mph - N/A   Clear
7:55 PM -25.6 °F -43.8 °F -34.6 °F 63% 30.50 in 10.0 mi SSW 6.9 mph - N/A   Clear
8:15 PM -25.6 °F -41.9 °F -34.6 °F 63% 30.49 in 10.0 mi SW 5.8 mph - N/A   Clear
8:35 PM -25.6 °F -41.9 °F -36.4 °F 57% 30.48 in 10.0 mi SW 5.8 mph - N/A   Clear
8:55 PM -27.4 °F -41.9 °F -36.4 °F 62% 30.48 in 10.0 mi SW 4.6 mph - N/A   Clear
9:15 PM -27.4 °F -45.9 °F -34.6 °F 69% 30.48 in 10.0 mi SW 6.9 mph - N/A   Clear
9:35 PM -27.4 °F -47.6 °F -36.4 °F 62% 30.48 in 10.0 mi SSW 8.1 mph - N/A   Clear
9:55 PM -27.4 °F -45.9 °F -34.6 °F 69% 30.48 in 10.0 mi SSW 6.9 mph - N/A   Clear
10:15 PM -27.4 °F -47.6 °F -34.6 °F 69% 30.49 in 10.0 mi SSW 8.1 mph - N/A   Clear
10:35 PM -27.4 °F -45.9 °F -36.4 °F 62% 30.48 in 10.0 mi SSW 6.9 mph - N/A   Clear
10:55 PM -27.4 °F -45.9 °F -34.6 °F 69% 30.48 in 10.0 mi SSW 6.9 mph - N/A   Clear
11:15 PM -29.2 °F -46.2 °F -36.4 °F 68% 30.48 in 10.0 mi SSW 5.8 mph - N/A   Clear
11:35 PM -29.2 °F -46.2 °F -36.4 °F 68% 30.47 in 10.0 mi SSW 5.8 mph - N/A   Clear
11:55 PM -29.2 °F -46.2 °F -36.4 °F 68% 30.47 in 10.0 mi SSW 5.8 mph - N/A   Clear